Карточка аэропорта USNN

Внимание!
Информация на этой странице в стадии наполнения.
Если вы не увидели какой-то информации, или заметили неточность - пожалуйста сообщите нам!
Спасибо!
Команда RU-STAFF
Название аэропортаНижневартовск
Название аэропорта (англ.)Nizhnevartovsk
Превышение177 ft. (53.9 m.)
Координаты60°57', 76°28.998'
Высота перехода800m
Эшелон переходаQFE>=756mm:FL040; QFE<756=>729:FL050; QFE<729:FL060
Коды ответчика5630-5633
Зона ОрВДТюмень РПИ (USTV)
Данные METARUSNN 131830Z 05002MPS CAVOK 16/16 Q1007 R03/0///65 NOSIG RMK QFE751
Проноз погоды (TAF)USNN 131718Z 1317/1418 02003G08MPS 9999 SCT030 TEMPO 1317/1324 VRB01MPS 0300 FG SCT002 BKN016 TEMPO 1400/1415 0500 TSRA FG SCT003 BKN016CB
NOTAMshow/hide NOTAM
AWOS   TABLE

Информация о ВПП

ВПП Длина ВПП (м.) Покрытие Курс ВПП Частота ILS
033200Асфальтобетон26110.5
213200Асфальтобетон206111.9

Диспетчерские позиции

Позывной Наименование органа УВД Частота
USNN_APPНижневартовск - Круг120.400
USNN_TWRНижневартовск - Вышка118.100



Спутниковое изображение